201  
ASUS41 KPHI 271212  
RWRPHI  
 
REGIONAL WEATHER ROUNDUP  
NATIONAL WEATHER SERVICE MOUNT HOLLY NJ  
700 AM EST WED JAN 27 2021  
 
NOTE: "FAIR" INDICATES FEW OR NO CLOUDS BELOW 12,000 FEET WITH NO  
SIGNIFICANT WEATHER AND/OR S TO VISIBILITY
.  
 
* = STATION DOES NOT REPORT PRECIPITATION (E.G. RAIN, SNOW, ETC.)  
OR FOG.
 
 
NJZ015>026-271300-  
SOUTHERN NEW JERSEY  
 
CITY SKY/WX TMP DP RH WIND PRES REMARKS
 
POMONA CLOUDY 37 35 92 NW12 29.96R WCI 29  
6HR MIN TEMP: 35; 6HR MAX TEMP: 37;  
 
WILDWOOD* MOCLDY 37 37 100 W8 29.99R FOG WCI 31  
MILLVILLE CLOUDY 38 35 89 W8 29.98R WCI 32  
MOUNT HOLLY CLOUDY 37 34 89 W8 29.97R WCI 31  
TRENTON CLOUDY 35 33 92 NW7 29.95R WCI 29  
6HR MIN TEMP: 33; 6HR MAX TEMP: 35; 6HR PCP: TRACE;  
 

 
NJZ001>014-271300-  
NORTHERN NEW JERSEY  
 
CITY SKY/WX TMP DP RH WIND PRES REMARKS
 
SUSSEX CLOUDY 32 27 81 CALM 29.94R  
ANDOVER* N/A 30 27 88 CALM 29.95R  
NEWARK MOCLDY 35 32 88 VRB3 29.94R  
TETERBORO CLOUDY 32 29 88 NE3 29.94R  
CALDWELL MOCLDY 33 29 85 CALM 29.95R FOG  
SOMERVILLE CLOUDY 34 31 88 CALM 29.94R FOG  
ALLAIRE* CLOUDY 34 34 100 W8 29.96R WCI 27  
TOMS RIVER* CLOUDY 35 33 92 W7 29.96R WCI 29  
 

 
PAZ043-044-047-054-055-060>062-066>071-271300-  
EASTERN PENNSYLVANIA  
 
CITY SKY/WX TMP DP RH WIND PRES REMARKS
 
PHILADELPHIA CLOUDY 37 33 85 W12 29.99R WCI 29  
6HR MIN TEMP: 35; 6HR MAX TEMP: 37;  
 
NORTH PHILA CLOUDY 37 33 85 NW10 29.99R WCI 30  
BLUE BELL* PTCLDY 34 32 93 W5 29.97R WCI 30  
DOYLESTOWN CLOUDY 36 32 85 NW8 29.95R WCI 30  
QUAKERTOWN* CLOUDY 34 34 100 CALM 29.97R  
PERKASIE* CLOUDY 34 34 100 NW8 29.97R WCI 27  
POTTSTOWN PTCLDY 33 31 92 W6 29.99R FOG WCI 28  
LANCASTER CLOUDY 35 31 85 W6 29.99R WCI 30  
COATESVILLE CLOUDY 34 34 100 NW5 29.99R FOG WCI 30  
WEST CHESTER CLOUDY 34 34 100 W5 29.98R WCI 30  
READING CLOUDY 35 32 88 W5 29.98R WCI 31  
6HR MIN TEMP: 33; 6HR MAX TEMP: 35; 6HR PCP: TRACE;  
 
ALLENTOWN CLOUDY 34 29 82 NW6 29.97R WCI 29  
6HR MIN TEMP: 31; 6HR MAX TEMP: 34;  
 
QN CITY/ALNTWN CLOUDY 34 32 93 CALM 29.98R FOG  
MOUNT POCONO CLOUDY 27 21 78 NW16G26 29.88R WCI 15  
6HR MIN TEMP: 27; 6HR MAX TEMP: 30; 6HR PCP: TRACE;  
 
HAZLETON CLOUDY 30 23 74 NW12G25 29.96R WCI 21  
LEHIGHTON CLOUDY 36 30 80 NW3 29.98R  
WILKES BARRE CLOUDY 33 23 66 NW12 29.97R WCI 24  
 

 
DEZALL-MDZ008-012-015-019-020-271300-  
DELAWARE AND EASTERN MARYLAND  
 
CITY SKY/WX TMP DP RH WIND PRES REMARKS
 
WILMINGTON CLOUDY 35 33 92 NW6 30.01R WCI 30  
6HR MIN TEMP: 34; 6HR MAX TEMP: 36;  
 
CHESWOLD CLOUDY 37 36 93 NW7G13 30.01R WCI 32  
GEORGETOWN CLOUDY 38 35 89 VRB6 30.00R FOG WCI 33  
6HR MIN TEMP: 38; 6HR MAX TEMP: 39;  
 
EASTON MOCLDY 37 36 93 SW3 30.05R FOG  
STEVENSVILLE CLOUDY 39 37 93 NW8 30.03R WCI 34  
PATUXENT CLOUDY 37 36 96 W5 30.04R FOG WCI 33  
OCEAN CITY CLOUDY 38 36 92 NW7 30.01R FOG WCI 33  
WALLOPS ISLAND CLOUDY 38 38 100 NW8 30.03R WCI 32  
CAMBRIDGE CLOUDY 37 37 100 W3 30.03R FOG  
SALISBURY CLOUDY 38 35 89 W7 30.02R FOG WCI 33  
 

 
PAZ001-021-NYZ056-072-MDZ011-DCZ001-271300-  
OTHER NEARBY LOCATIONS  
 
CITY SKY/WX TMP DP RH WIND PRES REMARKS
 
HARRISBURG CLOUDY 37 30 75 NW10 30.00R WCI 30  
STATE COLLEGE CLOUDY 32 25 74 NW12G18 30.04R WCI 23  
WILLIAMSPORT CLOUDY 34 22 61 NW10 30.03R WCI 26  
BINGHAMTON FLURRIES 24 20 84 N15G23 29.95R WCI 11  
NEW YORK CITY CLOUDY 33 30 88 W5 29.95R WCI 29  
BALTIMORE MOCLDY 37 34 89 W7 30.03R WCI 32  
WASHINGTON DC MOCLDY 38 36 92 N9 30.05R WCI 31  
 

 
 
 
CLICK HERE TO GO TO PREVIOUS BULLETINS.

The Nexlab PA Page
The Nexlab NJ Page
The Nexlab DE Page
The Nexlab MD Page Main Text Page